DELTA 1 DEB, 10864

Orbit data source: Space-Track

DELTA 1 DEB, 10864 is space debris in LEO originally from a launch on Thu, 29 Jul 1976 UTC launched from the Air Force Western Test Range (AFWTR). Debris objects in space refer to the collection of defunct objects orbiting the Earth. Examples of debris include non-operational satellites, rocket bodies, and fragments generated from explosions, collisions, or faulty payload assembly.

Loading next visibility...
Identifier
10864, 1976-077CS
Orbit
LEO
Country
Flag of USUS
Related business
Manufacturer
Unknown
Mission
Spacecraft
Bus & Motor
Unknown
Mass
Unknown
Launch date (UTC)
1976-07-29 (49 years ago)
Launch vehicle
Unknown
Launch site
Air Force Western Test Range (AFWTR)
Object type
Payload
Rocket body
Debris
Shape & HBR
Unknown shape, 0.2 m
Radar Cross Section
Medium (>0.1 m² and <1 m²)

Expand to show TLE details & history
Last TLE update: 1 day ago

TLE from 1 day ago
0 DELTA 1 DEB
1 10864U 76077CS  25301.28937451 -.00000400  00000-0 -50806-2 0  9993
2 10864 101.1048  58.4008 0374411  42.6851  13.5139 11.75788672104084
Epoch: 2025-10-28T06:56Z
TLE epoch observation values (Epoch: 2025-10-28T06:56:41.957Z)
Latitude
55.71103°
Longitude
-99.2977°
Altitude
1,503.388 km
Speed
7.246 km/s
True Right ascension
02h 47m 01s
True Declination
55° 33' 57"
Sunlit
Object was in full shadow at epoch
Visualization orbit readout
Latitude
Unknown
Longitude
Unknown
Altitude
Unknown
Speed
Unknown
Apparent Right ascension
Unknown
Apparent Declination
Unknown
Sunlit
N/A
Visualization observer readout
Local Sidereal Time
05:12:04
Azimuth
Unknown
Elevation
Unknown
Doppler factor
Unknown
Orbital elements
Apogee altitude
2,094.497 km
Perigee altitude
1,482.944 km
Semi-major axis
8,166.858 km
Eccentricity
0.03744
Inclination
101.1048°
RAAN
58.4008°
Arg. of periapsis
42.6851°
True anomaly
14.56414°
Mean anomaly
13.5139°
Eccentric anomaly
14.03411°
Mean motion
2.94077 °/min
Orbital period
122.42 mins
BSTAR
-0.0050806
Loading maneuver chart data...
Computing Atmospheric mass density...
Loading historical data...
Loading historical data...
Loading historical data...
Loading historical data...
Loading historical data...
Loading historical data...
Loading historical data...

Documentation

Showing up to 5 results
|